2025-284A

Last updated on Mon Dec 15 2025 00:02:13 GMT+0000 (Coordinated Universal Time)

1 66913U 25284A 25348.30968701 .00010811 00000+0 51453-3 0 9993 2 66913 80.4040 127.7746 0012013 199.4952 160.5818 15.19005444 1365
UTC large
Height (km)
Speed (km/s)
/
Latitude / Longitude
Inclination (degrees)
Orbital Period (minutes)
Azimuth
Elevation
Range (km)
Doppler Factor

Next 0 passes for location: London (51.5072 / 0.1276)

Sorry there are no passes over London.